Location: Home
(42.5358°N, 72.7383°W)
Time: 17:28:35
(UTC-05:00)

Tiros 1 - Pass Details

Date: 06 December 2021
Orbit: 629 x 664 km, 48.4° (Epoch: 26 January)

Event Time Altitude Azimuth Distance (km) Brightness Sun altitude
Rises 19:30:02 0° 274° (W) 2,924 11.6 -34.6°
Reaches altitude 10° 19:32:27 10° 281° (WNW) 2,021 10.4 -35.1°
Enters shadow 19:34:00 20° 291° (WNW) 1,485 9.5 -35.3°
